Probability
0 0 0 0 0 0 0 0 0 0 0 0 0 0 0 0 0 0 0 0 0 0 0 0 0 0 0 0 0 0 0 0 0 0 0 0 0 0 0 0 0 0 0
0 0 0 0 0 0 0 0 0 0 0 0 0 0 0 0 0 0 0 0 0 0 0 0 0 0 0 0 0 0 0 0 0 0 0 0 0 0 0 0 0 0 0
0 0 0 0 0 0 0 0 0 0 0 0 0 0 0 0 0 0 0 0 0 0 0 0 0 0 0 0 0 0 0 0 0 0 0 0 0 0 0 0 0 0 0
0 0 0 0 0 0 0 0 0 0 0 0 0 0 0 0 0 0 0 0 0 0 0 0 0 0 0 0 0 0 0 0 0 0 0 0 0 0 0 0 0 0 0
0 0 0 0 0 0 0 0 0 0 0 0 0 0 0 0 0 0 0 0 0 0 0 0 0 0 0 0 0 0 0 0 0 0 0 0 0 0 0 0 0 0 0
0 0 0 0 0 0 0 0 0 0 0 0 0 0 0 0 0 0 0 0 0 0 0 0 0 0 0 0 0 0 0 0 0 0 0 0 0 0 0 0 0 0 0
0 0 0 0 0 0 0 0 0 0 0 0 0 0 0 0 0 0 0 0 0 0 0 0 0 0 0 0 0 0 0 0 0 0 0 0 0 0 0 0 0 0 0
0 0 0 0 0 0 0 0 0 0 0 0 0 0 0 0 0 0 0 0 0 0 0 0 0 0 0 0 0 0 0 0 0 0 0 0 0 0 0 0 0 0 0
0 0 0 0 0 0 0 0 0 0 0 0 0 0 0 0 0 0 0 0 0 0 0 0 0 0 0 0 0 0 0 0 0 0 0 0 0 0 0 0 0 0 0
0 0 0 0 0 0 0 0 0 0 0 0 0 0 0 0 0 0 0 0 0 0 0 0 0 0 0 0 0 0 0 0 0 0 0 0 0 0 0 0 0 0 0
0 0 0 0 0 0 0 0 0 0 0 0 0 0 0 0 0 0 0 0 0 0 0 0 0 0 0 0 0 0 0 0 0 0 0 0 0 0 0 0 0 0 0
0 0 0 0 0 0 0 0 0 0 0 0 0 0 0 0 0 0 0 0 0 0 0 0 0 0 0 0 0 0 0 0 0 0 0 0 0 0 0 0 0 0 0
0 0 0 0 0 0 0 0 0 0 0 0 0 0 0 0 0 0 0 0 0 0 0 0 0 0 0 0 0 0 0 0 0 0 0 0 0 0 0 0 0 0 0
0 0 0 0 0 0 0 0 0 0 0 0 0 0 0 0 0 0 0 0 0 0 0 0 0 0 0 0 0 0 0 0 0 0 0 0 0 0 0 0 0 0 0
0 0 0 0 0 0 0 0 0 0 0 0 0 0 0 0 0 0 0 0 0 0 0 0 0 0 0 0 0 0 0 0 0 0 0 0 0 0 0 0 0 0 0
0 0 0 0 0 0 0 0 0 0 0 0 0 0 0 0 0 0 0 0 0 0 0 0 0 0 0 0 0 0 0 0 0 0 0 0 0 0 0 0 0 0 0
0 0 0 0 0 0 0 0 0 0 0 0 0 0 0 0 0 0 0 0 0 0 0 0 0 0 0 0 0 0 0 0 0 0 0 0 0 0 0 0 0 0 0
0 0 0 0 0 0 0 0 0 0 0 0 0 0 0 0 0 0 0 0 0 0 0 0 0 0 0 0 0 0 0 0 0 0 0 0 0 0 0 0 0 0 0
0 0 0 0 0 0 0 0 0 0 0 0 0 0 0 0 0 0 0 0 0 0 0 0 0 0 0 0 0 0 0 0 0 0 0 0 0 0 0 0 0 0 0
0 0 0 0 0 0 0 0 0 0 0 0 0 0 0 0 0 0 0 0 0 0 0 0 0 0 0 0 0 0 0 0 0 0 0 0 0 0 0 0 0 0 0
0 0 0 0 0 0 0 0 0 0 0 0 0 0 0 0 0 0 0 0 0 0 0 0 0 0 0 0 0 0 0 0 0 0 0 0 0 0 0 0 0 0 0
0 0 0 0 0 0 0 0 0 0 0 0 0 0 0 0 0 0 0 0 0 0 0 0 0 0 0 0 0 0 0 0 0 0 0 0 0 0 0 0 0 0 0
0 0 0 0 0 0 0 0 0 0 0 0 0 0 0 0 0 0 0 0 0 0 0 0 0 0 0 0 0 0 0 0 0 0 0 0 0 0 0 0 0 0 0
0 0 0 0 0 0 0 0 0 0 0 0 0 0 0 0 0 0 0 0 0 0 0 0 0 0 0 0 0 0 0 0 0 0 0 0 0 0 0 0 0 0 0
0 0 0 0 0 0 0 0 0 0 0 0 0 0 0 0 0 0 0 0 0 0 0 0 0 0 0 0 0 0 0 0 0 0 0 0 0 0 0 0 0 0 0
0 0 0 0 0 0 0 0 0 0 0 0 0 0 0 0 0 0 0 0 0 0 0 0 0 0 0 0 0 0 0 0 0 0 0 0 0 0 0 0 0 0 0
Height
5583 5583 5584 5584 5586 5586 5587 5588 5590 5591 5593 5595 5597 5599 5601 5603 5605 5606 5609 5611 5613 5616 5619 5621 5624 5626 5629 5631 5633 5636 5638 5641 5644 5648 5649 5650 5652 5653 5655 5657 5661 5665 5669
5569 5569 5569 5570 5570 5571 5572 5573 5574 5576 5578 5580 5581 5583 5585 5587 5589 5591 5593 5596 5598 5601 5604 5607 5610 5612 5615 5617 5619 5622 5624 5626 5629 5633 5635 5637 5638 5639 5641 5644 5648 5651 5656
5555 5555 5555 5555 5555 5556 5557 5558 5558 5560 5562 5564 5566 5568 5570 5571 5573 5575 5577 5580 5583 5586 5589 5592 5595 5598 5601 5603 5606 5608 5610 5612 5614 5617 5620 5622 5623 5625 5627 5631 5634 5638 5642
5541 5541 5540 5540 5540 5540 5541 5542 5543 5545 5547 5548 5550 5552 5554 5556 5558 5559 5561 5564 5567 5570 5573 5577 5580 5583 5586 5589 5591 5594 5596 5597 5599 5602 5605 5607 5609 5611 5614 5617 5621 5624 5627
5527 5527 5526 5526 5525 5525 5526 5526 5528 5529 5531 5533 5535 5537 5538 5540 5543 5544 5546 5548 5551 5555 5558 5562 5565 5568 5571 5574 5577 5579 5581 5583 5585 5587 5590 5593 5596 5598 5601 5604 5607 5610 5613
5513 5513 5512 5511 5511 5511 5511 5511 5512 5513 5515 5517 5519 5521 5523 5525 5527 5528 5531 5533 5536 5540 5543 5547 5550 5554 5557 5560 5562 5565 5567 5569 5572 5574 5577 5580 5583 5585 5587 5590 5593 5596 5601
5499 5498 5497 5497 5496 5496 5496 5495 5496 5497 5499 5501 5503 5505 5507 5509 5511 5513 5515 5518 5522 5525 5529 5533 5536 5540 5543 5546 5548 5550 5553 5555 5557 5560 5563 5566 5569 5572 5574 5577 5579 5581 5586
5485 5484 5483 5482 5482 5481 5480 5480 5481 5481 5483 5485 5487 5489 5492 5494 5496 5498 5500 5503 5507 5511 5514 5518 5522 5526 5529 5532 5534 5537 5539 5541 5543 5546 5550 5553 5555 5557 5559 5562 5564 5567 5571
5471 5470 5469 5468 5467 5467 5466 5466 5466 5466 5468 5469 5472 5474 5476 5479 5481 5483 5485 5489 5493 5497 5501 5504 5508 5512 5515 5518 5520 5523 5525 5527 5529 5532 5535 5538 5540 5542 5544 5547 5549 5552 5556
5458 5456 5455 5454 5453 5453 5452 5452 5452 5452 5453 5454 5457 5459 5461 5464 5467 5469 5471 5474 5479 5484 5487 5491 5494 5497 5500 5502 5505 5508 5511 5514 5515 5518 5520 5523 5525 5528 5530 5532 5534 5536 5540
5445 5443 5442 5441 5440 5440 5439 5438 5438 5438 5440 5441 5443 5445 5448 5450 5453 5455 5457 5460 5464 5468 5472 5476 5480 5483 5485 5488 5490 5493 5497 5499 5501 5503 5506 5509 5511 5513 5516 5517 5519 5521 5524
5433 5431 5430 5428 5427 5426 5426 5425 5425 5425 5426 5427 5429 5432 5434 5436 5439 5442 5444 5447 5451 5454 5458 5462 5465 5468 5471 5473 5476 5479 5482 5484 5486 5489 5492 5495 5498 5500 5502 5503 5505 5507 5509
5420 5419 5417 5416 5415 5414 5413 5413 5413 5413 5413 5415 5417 5419 5421 5423 5426 5429 5432 5434 5437 5440 5444 5448 5451 5453 5455 5458 5461 5464 5467 5469 5472 5474 5478 5481 5484 5487 5488 5489 5491 5492 5494
5409 5408 5406 5405 5403 5402 5401 5401 5401 5401 5402 5403 5405 5408 5410 5412 5414 5416 5419 5421 5424 5427 5430 5433 5436 5438 5440 5443 5446 5449 5452 5455 5458 5461 5465 5468 5470 5472 5474 5475 5477 5478 5480
5398 5397 5395 5394 5392 5392 5391 5391 5391 5391 5391 5393 5395 5396 5398 5401 5402 5404 5406 5409 5412 5414 5417 5419 5422 5424 5426 5429 5432 5435 5438 5441 5444 5447 5450 5453 5455 5457 5459 5461 5462 5463 5465
5389 5387 5385 5383 5382 5382 5382 5381 5381 5381 5381 5382 5384 5386 5387 5389 5391 5392 5394 5396 5398 5401 5403 5405 5408 5410 5413 5416 5419 5422 5425 5427 5431 5433 5436 5438 5440 5443 5445 5446 5447 5448 5450
5380 5378 5376 5375 5373 5372 5372 5372 5372 5372 5371 5372 5373 5374 5376 5377 5379 5381 5382 5384 5385 5387 5389 5392 5394 5397 5400 5403 5406 5409 5412 5414 5417 5420 5422 5424 5426 5428 5430 5432 5433 5434 5435
5371 5369 5367 5366 5365 5363 5363 5363 5363 5363 5363 5362 5363 5363 5364 5366 5367 5368 5369 5371 5372 5374 5376 5379 5381 5384 5387 5390 5393 5396 5399 5401 5403 5406 5408 5410 5412 5414 5416 5418 5419 5420 5421
5363 5361 5360 5358 5357 5355 5355 5354 5353 5353 5353 5353 5353 5353 5353 5354 5355 5356 5356 5358 5360 5362 5364 5366 5368 5371 5374 5377 5380 5383 5385 5388 5390 5393 5395 5397 5399 5401 5403 5404 5405 5406 5406
5356 5354 5352 5350 5349 5347 5346 5345 5344 5343 5342 5342 5342 5342 5343 5343 5344 5344 5345 5346 5348 5350 5352 5353 5356 5358 5361 5364 5367 5370 5373 5375 5378 5380 5382 5384 5386 5388 5389 5390 5391 5392 5393
5348 5346 5344 5342 5341 5339 5338 5336 5335 5334 5333 5333 5332 5332 5333 5333 5334 5334 5335 5336 5337 5338 5340 5342 5344 5347 5349 5352 5355 5358 5361 5363 5365 5368 5370 5371 5373 5374 5375 5376 5377 5378 5379
5341 5339 5336 5334 5333 5331 5329 5328 5326 5325 5325 5324 5323 5323 5323 5324 5324 5325 5325 5326 5327 5328 5330 5332 5334 5336 5338 5341 5343 5346 5349 5351 5353 5355 5357 5358 5360 5361 5362 5363 5364 5365 5366
5333 5331 5329 5327 5325 5323 5321 5320 5318 5317 5316 5315 5315 5315 5315 5315 5315 5315 5316 5316 5318 5319 5320 5322 5324 5326 5328 5330 5333 5335 5338 5340 5342 5343 5345 5347 5348 5349 5350 5351 5352 5352 5353
5326 5324 5321 5320 5318 5316 5314 5312 5311 5309 5308 5307 5307 5307 5306 5306 5307 5307 5308 5308 5309 5310 5312 5313 5315 5317 5318 5320 5322 5324 5326 5328 5330 5332 5333 5335 5336 5338 5338 5339 5340 5341 5341
5319 5317 5315 5312 5311 5309 5307 5305 5304 5302 5301 5300 5299 5299 5299 5299 5299 5299 5300 5301 5301 5303 5303 5304 5306 5307 5309 5311 5312 5314 5316 5317 5319 5321 5323 5324 5325 5326 5327 5328 5329 5329 5330
5312 5310 5307 5305 5303 5302 5300 5298 5297 5296 5294 5293 5293 5292 5292 5292 5292 5292 5292 5293 5293 5294 5295 5296 5297 5299 5300 5302 5303 5304 5306 5307 5309 5311 5312 5314 5315 5316 5316 5317 5318 5318 5319
Wind_Speed
50 51 52 53 53 54 54 53 54 54 54 54 54 54 54 54 54 54 53 53 53 53 52 51 50 50 49 49 49 50 49 49 47 46 46 47 48 49 50 50 50 49 48
49 50 52 53 53 53 53 54 55 55 54 54 54 55 55 55 54 54 54 55 54 54 53 52 51 51 51 51 51 51 51 50 49 47 47 49 49 49 50 50 50 50 50
50 50 51 52 52 53 53 53 54 54 54 55 54 54 54 54 54 54 54 54 54 54 54 53 52 51 51 52 52 52 52 51 51 50 49 49 50 50 49 49 49 50 51
49 50 50 51 52 53 53 53 53 54 54 54 53 54 54 54 53 54 55 54 54 54 54 54 53 52 51 52 52 52 51 52 51 51 51 49 50 50 49 49 49 50 51
49 49 49 50 51 52 52 52 53 53 54 55 54 54 54 54 54 54 55 55 55 54 54 54 53 52 52 52 52 51 51 51 51 51 51 50 49 50 50 49 49 50 51
48 49 49 50 50 51 51 52 53 54 55 55 54 54 54 54 55 55 55 55 54 54 54 53 53 52 51 51 51 51 51 51 51 51 50 50 49 50 50 49 49 50 51
48 48 49 49 50 50 50 51 53 54 55 55 54 55 54 54 55 55 55 55 54 53 53 52 52 51 50 50 50 50 50 51 51 51 50 49 49 49 50 49 50 50 50
47 47 48 49 49 49 50 50 51 52 53 53 53 54 54 54 54 54 54 54 54 53 53 52 51 50 49 50 50 50 50 51 51 51 50 49 50 50 50 50 49 50 50
45 45 46 47 47 48 48 49 49 50 51 51 52 53 52 52 52 52 54 53 53 53 52 52 51 50 50 50 51 50 50 50 51 51 50 51 50 50 51 51 51 52 51
45 45 45 45 45 46 46 47 47 47 48 48 49 50 50 50 50 51 52 52 52 53 53 52 51 51 51 51 51 50 50 50 51 50 50 51 51 51 51 51 52 52 51
44 44 44 45 44 44 44 44 44 45 45 45 46 47 48 48 49 49 50 51 51 52 52 52 52 52 51 51 51 51 50 50 50 50 50 50 50 50 50 50 50 51 51
42 42 42 42 43 42 41 41 42 42 43 43 44 44 45 45 46 47 48 49 49 50 50 50 50 50 51 51 51 50 50 51 51 50 50 50 50 50 50 49 49 49 50
41 40 40 40 40 40 39 39 39 40 40 40 41 42 42 43 44 45 45 46 47 48 49 49 50 49 50 51 51 50 50 51 51 50 50 49 49 49 49 49 49 50 50
38 38 38 38 38 37 37 37 37 38 38 38 39 40 41 42 42 43 44 45 46 47 48 48 49 49 49 49 49 49 49 50 50 50 50 50 50 50 50 50 50 50 50
37 37 37 37 36 35 35 34 35 35 35 36 37 38 39 40 41 43 44 44 45 46 47 47 47 47 48 48 48 48 48 48 48 48 49 49 49 50 50 50 50 51 51
35 35 34 34 34 34 33 33 33 34 34 34 36 37 38 39 40 42 43 44 44 45 46 46 46 47 47 47 47 47 47 47 47 47 48 49 49 49 49 49 50 50 51
32 32 32 32 32 32 33 33 33 34 35 35 36 37 38 39 40 42 43 44 44 45 45 46 46 46 47 47 46 46 46 46 46 46 47 47 48 49 49 48 49 49 49
30 30 29 30 30 31 32 32 33 34 34 34 36 38 39 39 40 41 42 44 44 44 44 45 44 44 44 45 46 46 46 46 46 46 46 46 46 47 47 47 47 47 47
28 28 28 29 30 30 30 32 33 34 34 34 36 37 38 39 40 40 41 42 42 42 41 41 41 42 43 44 44 44 45 45 44 44 44 45 45 45 46 46 47 47 47
28 28 29 29 30 30 31 31 32 33 33 33 34 35 35 35 36 37 38 38 39 40 39 39 39 39 40 41 42 42 42 42 42 42 42 43 44 44 45 45 46 46 46
27 28 28 29 28 29 30 30 29 29 30 31 31 32 32 32 33 34 34 35 35 36 36 36 37 38 38 39 39 39 40 40 40 40 41 41 41 42 43 43 44 44 44
27 27 27 27 27 27 28 28 27 27 27 27 28 29 30 31 31 31 32 32 33 33 34 35 35 35 37 37 37 38 38 39 39 39 39 39 39 40 40 41 42 42 42
27 27 26 25 25 26 26 26 25 25 25 25 26 26 27 28 28 29 29 29 30 31 32 32 33 33 34 35 36 36 36 37 37 37 37 37 38 38 38 39 39 40 40
25 25 25 24 24 23 23 24 23 24 24 24 25 25 26 26 26 27 28 28 28 29 30 31 31 32 33 34 34 35 35 35 35 35 35 36 36 36 37 37 37 37 37
24 24 24 24 24 23 23 23 23 23 23 23 23 23 24 24 24 25 25 26 27 27 28 29 29 29 30 31 32 32 33 33 33 34 34 35 35 35 35 36 35 36 36
24 24 23 23 22 23 23 22 22 21 21 21 21 21 20 21 21 21 22 23 24 25 25 25 26 27 28 28 29 30 30 31 32 32 33 34 34 34 33 32 32 32 33
Wind_Direction
265 264 262 261 262 262 262 261 260 259 258 258 259 258 258 258 258 258 257 257 257 256 255 256 256 256 256 256 256 256 256 257 258 256 257 257 257 257 257 256 254 252 251
266 265 264 263 263 262 262 262 260 259 258 258 259 259 258 258 257 257 257 257 257 256 255 255 255 256 256 256 256 256 257 257 258 257 256 258 259 259 257 255 254 253 252
268 267 266 266 265 263 264 263 261 259 258 258 259 259 259 258 257 257 257 257 256 255 255 255 255 255 256 256 257 257 258 257 258 256 256 257 258 258 257 255 254 254 253
269 268 268 267 267 266 265 263 262 259 259 259 259 259 258 258 258 258 257 257 256 255 255 255 255 255 255 256 256 257 258 258 258 257 256 257 257 256 256 255 255 255 254
271 270 269 269 268 268 266 264 262 261 260 260 260 259 258 258 258 258 257 257 256 255 254 255 255 255 255 255 257 257 258 258 257 256 256 256 255 255 255 256 256 256 255
271 270 270 270 269 268 267 265 263 262 261 261 261 260 259 258 257 257 257 256 255 255 254 254 255 254 254 255 256 257 257 258 257 256 255 254 255 255 255 256 257 257 257
272 271 271 270 270 269 269 267 265 263 261 261 261 260 259 259 258 256 256 255 255 254 253 253 253 253 254 255 255 257 258 258 257 255 254 254 254 255 256 257 257 257 257
272 272 271 271 270 270 269 268 266 264 262 261 260 260 259 259 257 256 255 255 254 253 252 252 252 252 253 255 256 256 257 257 256 256 255 255 255 255 257 257 258 258 258
273 273 272 272 271 271 270 269 267 266 263 260 259 259 259 258 256 255 254 254 253 251 251 251 252 253 254 255 256 257 257 257 257 257 257 257 257 258 258 258 259 260 260
274 274 273 273 273 272 272 271 268 266 264 261 260 259 258 257 255 254 253 253 252 250 251 251 253 254 254 255 257 257 256 256 255 257 257 257 257 258 259 260 260 261 261
276 275 275 274 274 273 271 270 268 266 264 262 261 260 259 257 255 255 254 252 252 251 251 251 253 254 255 256 256 257 256 255 255 257 257 257 257 257 259 261 261 261 262
277 276 275 275 275 273 271 269 268 267 265 262 260 259 259 258 256 255 254 253 252 252 253 253 254 255 255 255 255 256 256 255 257 258 258 258 257 258 260 262 262 263 263
277 276 276 276 275 273 271 270 268 267 265 261 259 259 258 257 255 255 254 254 254 254 255 255 255 255 255 254 254 255 255 256 257 258 258 258 259 260 261 263 263 264 264
277 277 276 276 276 273 272 270 268 266 264 261 258 258 257 256 255 254 254 254 254 255 255 255 255 255 255 254 254 254 255 255 256 257 257 259 260 261 262 264 264 264 263
279 279 278 276 275 273 272 270 268 267 266 262 259 259 259 257 256 255 254 254 255 256 256 256 255 254 254 254 253 253 254 254 254 256 258 260 261 261 261 263 264 264 264
280 280 279 277 275 272 269 270 270 269 267 265 262 261 261 259 258 256 256 255 255 256 255 255 256 255 253 252 252 252 253 254 256 258 260 260 260 261 262 263 264 265 266
283 282 281 279 275 271 268 268 268 269 269 267 265 263 263 261 259 257 257 257 257 256 255 256 255 255 253 252 252 253 253 255 257 259 260 260 260 261 262 264 265 266 267
285 284 283 281 280 275 271 269 270 271 269 267 266 266 265 263 261 260 259 258 258 258 257 255 254 253 252 252 253 253 254 256 257 257 259 260 261 262 263 264 265 266 268
286 286 284 284 283 280 277 274 273 273 270 268 267 266 266 265 264 263 261 259 258 258 257 255 254 253 253 254 255 256 256 256 256 257 259 260 261 262 262 263 264 266 267
287 287 286 285 284 282 281 279 276 274 271 269 268 266 265 265 265 264 262 261 260 258 257 256 256 255 254 255 255 255 256 256 257 257 258 259 261 261 262 263 264 265 266
289 288 287 287 285 283 282 282 281 277 273 271 269 266 265 266 265 264 264 263 261 259 259 258 257 255 254 254 255 256 256 256 257 258 258 259 260 262 263 264 264 265 265
291 290 289 287 285 283 283 282 280 279 276 274 273 270 268 268 268 266 265 263 262 260 260 260 259 256 255 254 255 256 257 256 256 257 258 259 260 262 263 264 264 265 265
294 293 291 289 287 284 282 281 281 279 277 276 274 273 271 270 270 269 266 264 263 261 260 260 259 258 256 255 255 257 257 257 257 257 258 259 261 263 264 264 264 264 263
294 292 291 291 289 287 285 282 282 281 278 276 274 274 272 270 269 268 266 264 263 262 261 260 260 259 258 258 258 258 258 258 257 257 259 260 262 263 263 265 265 264 263
293 292 292 291 290 289 286 284 283 283 280 276 273 272 271 269 268 266 264 262 262 262 262 261 260 259 258 259 260 259 258 258 258 258 258 260 262 262 264 264 263 262 263
293 293 293 292 290 288 286 285 284 284 281 278 274 271 269 268 267 265 264 264 263 263 262 262 260 259 258 259 260 260 258 258 259 260 261 261 261 261 261 260 261 260 261